• Processing (Info)

  • MPEC 2024-O76 : 2024 OH

    The following Minor Planet Electronic Circular may be linked-to from your own Web pages, but must not otherwise be redistributed electronically.

    A form allowing access to any MPEC is at the bottom of this page.


    Read MPEC 2024-O75 Read MPEC 2024-O77


    M.P.E.C. 2024-O76                                 Issued 2024 July 29, 01:18 UT
    
         The Minor Planet Electronic Circulars contain information on unusual
             minor planets, routine data on comets and natural satellites,
             and occasional editorial announcements.  They are published
        on behalf of Division F of the International Astronomical Union by the
              Minor Planet Center, Smithsonian Astrophysical Observatory,
                              Cambridge, MA 02138, U.S.A.
    			  
                 Prepared using the Tamkin Foundation Computer Network
    
                                  MPC@CFA.HARVARD.EDU
                URL https://www.minorplanetcenter.net/    ISSN 1523-6714
    
                                     2024 OH                                 
    
    
    Observations:
         K24O00H*KB2024 07 27.08856 20 49 22.882-17 36 14.76         18.6 GXEO076L87
         K24O00H KB2024 07 27.09459 20 49 19.822-17 33 31.61         19.0 GXEO076L87
         K24O00H KB2024 07 27.10064 20 49 16.990-17 30 45.90         18.0 GXEO076L87
         K24O00H KB2024 07 27.64868220 45 16.685-13 20 43.53         19.4 VZEO076Q06
         K24O00H KB2024 07 27.65430320 45 13.815-13 18 05.56               ZEO076Q06
         K24O00H KB2024 07 27.65992320 45 10.983-13 15 27.58         19.0 VZEO076Q06
         K24O00H KB2024 07 27.83682 20 44 00.612-11 48 46.58         18.8 GXEO076L87
         K24O00H KB2024 07 27.84197 20 43 58.020-11 46 19.99         19.1 GXEO076L87
         K24O00H KB2024 07 27.84711 20 43 55.416-11 43 54.48         18.6 GXEO076L87
         K24O00H KB2024 07 27.89462 20 43 28.76 -11 24 23.5          19.2 VZEO076M45
         K24O00H KB2024 07 27.89912 20 43 26.47 -11 22 14.5          19.4 VZEO076M45
         K24O00H KC2024 07 27.89918920 43 26.25 -11 22 18.2          18.3 GXEO076L18
         K24O00H KB2024 07 27.90351 20 43 24.28 -11 20 08.4          19.2 VZEO076M45
         K24O00H KC2024 07 27.90563420 43 22.96 -11 19 12.7          18.7 GXEO076L18
         K24O00H KC2024 07 27.91203920 43 19.73 -11 16 08.0          18.6 GXEO076L18
         K24O00H KC2024 07 27.92881 20 43 13.53 -11 08 03.7          18.8 GVEO076K51
         K24O00H KC2024 07 27.93251 20 43 11.70 -11 06 17.6          18.9 GVEO076K51
         K24O00H KC2024 07 27.93620 20 43 09.84 -11 04 31.6          18.7 GVEO076K51
         K24O00H KC2024 07 27.95713 20 42 59.44 -10 54 26.2          18.5 GVEO076104
         K24O00H KC2024 07 27.96036220 42 57.39 -10 52 56.6                XEO076595
         K24O00H KC2024 07 27.96306 20 42 56.49 -10 51 35.5          18.6 GVEO076104
         K24O00H KC2024 07 27.96634520 42 54.39 -10 50 04.5          19.1 GXEO076595
         K24O00H KC2024 07 27.97232920 42 51.39 -10 47 12.7          19.5 GXEO076595
         K24O00H KC2024 07 27.99143420 42 43.721-10 38 10.54         18.9 GVEO076J95
         K24O00H KC2024 07 27.99916820 42 39.878-10 34 27.95         18.4 GVEO076J95
         K24O00H KC2024 07 28.00368220 42 37.649-10 32 17.88         18.7 GVEO076J95
         K24O00H KB2024 07 28.00941820 42 33.34 -10 29 23.3          18.9 GVEO076204
         K24O00H KB2024 07 28.01830020 42 28.86 -10 25 06.9                VEO076204
         K24O00H |C2024 07 28.15236020 41 33.380-09 16 57.30         18.9 GVEO076807
         K24O00H |C2024 07 28.15565020 41 31.700-09 15 21.50         19.3 GVEO076807
         K24O00H |C2024 07 28.16238020 41 28.230-09 12 06.40         18.6 GVEO076807
         K24O00H KC2024 07 28.86465 20 36 13.05 -03 31 00.8          18.6 GVEO076C82
         K24O00H KC2024 07 28.87334 20 36 08.71 -03 26 42.2          18.9 GVEO076C82
         K24O00H KB2024 07 28.88222 20 36 06.274-03 22 15.60         18.3 GXEO076J57
         K24O00H KB2024 07 28.88476 20 36 05.023-03 21 01.12         18.2 GXEO076J57
         K24O00H KB2024 07 28.88553720 36 04.07 -03 20 48.1          18.4 GXEO076I93
         K24O00H KB2024 07 28.88720 20 36 03.766-03 19 49.48         19.0 GXEO076J57
         K24O00H KB2024 07 28.88764920 36 03.06 -03 19 45.2          18.3 GXEO076I93
         K24O00H KB2024 07 28.88971020 36 02.01 -03 18 44.8          18.5 GXEO076I93
         K24O00H KB2024 07 28.90023020 35 55.396-03 13 45.24         18.8 GXEO076B72
         K24O00H KB2024 07 28.90600520 35 52.540-03 10 53.47         19.6 GXEO076B72
         K24O00H KB2024 07 28.91177520 35 49.661-03 08 02.33         19.5 GXEO076B72
         K24O00H KC2024 07 28.92010 20 35 44.19 -03 03 52.8          19.2 GXEO076G02
         K24O00H KC2024 07 28.92981 20 35 39.34 -02 59 01.6          19.4 GXEO076G02
    
    Observer details:
    104 San Marcello Pistoiese.  Observers P. Bacci, M. Maestripieri, M. D.
        Grazia.  Measurers P. Bacci, L. Tesi, G. Fagioli.  0.60-m F4 Reflector +
        CCD.
    204 Schiaparelli Observatory.  Observer L. Buzzi.  0.84-m f/3.5 reflector +
        CMO.
    595 Farra d'Isonzo.  Observer E. Pettarin.  0.61-m f/4.5 reflector + CCD.
    807 Cerro Tololo Observatory, La Serena.  Observers T. Linder, R. Holmes.
        0.61-m f/6.8 Ritchey-Chretien + CCD.
    B72 Soerth Observatory.  Observer B. Koch.  0.36-m f/7.6 reflector + CMO.
    C82 Osservatorio Astronomico Nastro Verde, Sorrento.  Observer N. Ruocco.
        0.35-m f/6.3  Schmidt-Cassegrain + CCD.
    G02 KYSUCE Observatory, Kysucke Nove Mesto.  Observer M. Urbanik.  0.40-m
        f/6.8 Corrected Dall-Kirkham + CCD.
    I93 St Pardon de Conques.  Observer F. Losse.  0.40-m f/3.7 reflector + CMO.
    J57 Centro Astronomico Alto Turia, Valencia.  Observer A. Fornas.  Measurers
        A. Fornas, G. Fornas, E. Arce, V. Mas.  0.43-m f/6.8 Reflector CDK + CMO.
    J95 Great Shefford.  Observer P. Birtwhistle.  0.41-m f/6.3 Schmidt-Cassegrain
        + CCD.
    K51 Osservatorio del Celado, Castello Tesino.  Observer M. Campestrin.  0.80-m
        f/4 reflector + CCD.
    L18 QOS Observatory, Zalistsi.  Observers B. O. Basiev, O. V. Kravchenko.
        Measurer A. M. Kozhukhov.  0.50-m f/3.8 reflector + CCD.
    L87 Moonbase South Observatory, Hakos.  Observer G. Duszanowicz.  0.28-m f/1.9
        reflector + CMO.
    M45 Starhopper Observatory, Sfantu Gheorghe.  Observer F. Ursache.  0.41-m
        f/7.5 reflector + CMO.
    Q06 Tarui Observatory, Tarui.  Observer H. Watanabe.  0.35-m f/1.9 Schmidt-
        Cassegrain + CMO.
    
    Orbital elements:
    2024 OH                                                  Earth MOID = 0.0498 AU
    Epoch 2024 Oct. 17.0 TT = JDT 2460600.5                 Veres                   
    M  28.98985              (2000.0)            P               Q                  
    n   0.60259177     Peri.   35.05104     +0.90160153     +0.29987374             
    a   1.3882060      Node   304.46262     -0.42961883     +0.70477482             
    e   0.2601855      Incl.   22.21694     +0.05042158     +0.64293716             
    P   1.64           H   24.82          G   0.15           U   7                  
    Residuals in seconds of arc
    240727 L87  0.9-  0.3+    240727 K51  0.2-  0.7-    240728 807  0.1-  0.2-
    240727 L87  1.4-  0.9-    240727 K51  0.2+  0.7-    240728 C82  0.1-  0.8-
    240727 L87  1.3+  0.0     240727 K51  0.1+  0.5-    240728 C82  0.1-  0.1+
    240727 Q06  0.3-  1.4+    240727 104  0.4-  0.3+    240728 J57  0.3+  0.6+
    240727 Q06  0.1-  0.5+    240727 595  0.2-  0.3+    240728 J57  0.2+  0.0
    240727 Q06  0.6+  0.5-    240727 104  0.3+  0.5+    240728 I93  0.0   0.1+
    240727 L87  0.8+  0.4+    240727 595  0.1+  0.3+    240728 J57  0.5-  0.8-
    240727 L87  0.5+  0.5+    240727 595  0.4+  0.2-    240728 I93  0.4+  0.4+
    240727 L87  0.1+  0.2-    240727 J95  0.3-  0.2+    240728 I93  0.1-  0.3-
    240727 M45  0.2-  0.5+    240727 J95  0.1-  0.0     240728 B72  0.1+  0.0
    240727 M45  0.6-  0.7+    240728 J95  0.2+  0.1-    240728 B72  0.1+  0.5+
    240727 L18  0.4+  0.1-    240728 204  0.1+  0.1+    240728 B72  0.3-  0.4+
    240727 M45  0.3-  1.1+    240728 204  0.1+  0.0     240728 G02  0.3-  0.6+
    240727 L18  0.6-  0.8+    240728 807  0.1-  0.3-    240728 G02 (0.1-  3.5+)
    240727 L18 (0.9-  1.9+)   240728 807  0.0   0.0
    
    Ephemeris:
    2024 OH                  a,e,i = 1.39, 0.26, 22                  q = 1.0270
    Date    TT    R. A. (2000) Decl.     Delta      r    Elong.  Phase     V
    2024 06 29    22 51 26.2 -70 41 24   0.2287  1.1485   120.1    50.0    23.8
    ...
    2024 07 14    22 13 51.2 -62 43 18   0.1227  1.1008   130.9    44.3    22.2
    ...
    2024 07 22    21 26 28.1 -45 48 05   0.07239 1.0790   149.6    28.4    20.5
    ...
    2024 07 28    20 42 39.0 -10 31 52   0.04999 1.0648   171.0     8.6    19.0
    2024 07 29    20 35 06.8 -02 22 25   0.04924 1.0627   163.6    15.6    19.3
    2024 07 30    20 27 35.6 +05 50 33   0.04958 1.0605   155.5    23.4    19.5
    ...
    2024 08 05    19 44 26.9 +42 30 33   0.06991 1.0491   118.0    58.7    21.3
    ...
    2024 08 13    18 57 11.8 +60 38 30   0.1174  1.0373    98.6    74.9    22.9
    ...
    2024 08 28    18 00 57.0 +70 00 41   0.2121  1.0271    88.6    79.5    24.3
    
    M. P. C. Staff               (C) Copyright 2024 MPC           M.P.E.C. 2024-O76
    


    Read MPEC 2024-O75 Read MPEC 2024-O77


    MPEC number:

    Enter an MPEC number in one of the following forms:

    • 1997-B01 (the full form)
    • J97B01 (the packed version of the full form)
    • B01 (the abbreviated form)